Location: Fort Wayne
(41.1310°N, 85.1290°W)
Time: 04:42:30
(UTC-04:00)

Cosmos 2056 Rocket - Visible Passes

Search period start: 27 September 2016 00:00
Search period end: 07 October 2016 00:00
Orbit: 742 x 802 km, 74.0° (Epoch: 26 September)

Date Brightness Start Highest point End Pass type
(mag) Time Alt. Az. Time Alt. Az. Time Alt. Az.
27 Sep 6.0 21:07:24 10° NW 21:11:33 23° W 21:15:40 10° SSW visible
28 Sep 5.2 20:30:54 10° NW 20:35:52 37° WSW 20:40:47 10° SSW visible
29 Sep 4.2 19:54:42 10° NNW 20:00:04 62° WSW 20:05:24 10° S visible
30 Sep 6.7 21:03:26 10° WNW 21:05:32 12° W 21:07:39 10° WSW visible
01 Oct 6.3 20:25:58 10° NW 20:29:57 21° W 20:33:55 10° SW visible
02 Oct 5.5 19:49:23 10° NW 19:54:16 35° W 19:59:07 10° SSW visible
04 Oct 7.1 20:22:18 10° WNW 20:23:55 11° W 20:25:32 10° WSW visible
05 Oct 6.6 19:44:32 10° NW 19:48:21 20° W 19:52:08 10° SW visible
06 Oct 6.7 06:59:20 10° SE 07:02:36 17° E 07:05:54 10° ENE visible
